Temp
27 26 26 25 25 26 25 25 25 25 24 24 23 23 22 21 21 22 22 22 21 21 21 21 22 22 22 22 22 22 21 20 20 21 21 22 22 22 23 23 24 24 24
25 25 25 25 24 24 24 24 24 24 23 23 23 23 22 21 21 21 21 22 22 21 21 21 21 21 21 22 21 21 21 21 20 20 21 21 22 22 23 24 24 24 24
24 24 24 24 24 23 22 22 23 23 23 23 23 22 22 22 21 21 20 21 21 21 21 21 21 21 21 21 21 21 21 22 21 20 20 21 22 22 23 23 24 24 24
24 24 23 23 23 22 21 21 21 22 22 22 22 22 21 21 21 22 21 21 21 21 22 22 22 22 22 21 21 21 21 20 20 20 20 20 21 22 22 22 23 23 24
24 23 22 22 21 21 20 20 20 20 20 21 21 21 21 20 20 20 21 21 21 21 21 22 22 21 23 23 22 20 22 20 20 20 20 20 20 21 21 23 23 23 23
22 21 22 21 20 20 20 20 20 20 20 20 20 20 20 20 20 20 20 21 20 20 21 21 20 21 22 23 23 23 21 21 21 20 20 20 20 22 22 22 22 21 20
21 21 21 20 19 19 19 19 19 19 19 19 19 19 19 20 20 20 20 20 20 20 19 20 19 20 19 21 20 20 20 20 23 22 21 20 21 23 23 22 22 22 22
21 20 19 19 19 19 19 18 18 19 19 19 19 19 19 19 20 20 20 20 20 20 19 19 19 20 20 20 18 18 19 20 22 22 21 23 23 23 23 23 23 23 22
19 19 19 18 18 18 18 18 18 18 18 18 19 19 19 19 20 20 20 19 19 19 18 19 19 20 23 22 18 18 18 20 22 22 22 23 23 23 23 23 22 21 20
19 19 18 18 18 18 18 18 18 19 18 19 19 19 18 18 19 19 19 18 17 18 18 17 19 21 20 20 21 18 19 21 21 21 21 21 22 22 22 22 22 21 21
18 18 18 18 18 18 18 18 19 18 18 19 18 17 17 16 17 18 18 18 17 18 18 18 18 18 19 19 19 18 19 20 23 21 20 20 20 21 20 21 22 22 21
17 17 17 17 17 18 18 19 19 18 18 18 17 17 17 16 16 16 17 17 17 18 18 19 19 19 20 21 18 18 20 22 22 21 20 19 19 20 20 20 21 21 21
16 16 17 17 17 17 17 18 18 18 18 16 17 16 16 16 16 16 16 17 17 17 18 19 19 19 20 19 16 20 20 20 20 19 19 19 19 20 20 19 19 19 20
16 15 16 16 17 17 18 17 17 18 17 17 17 17 17 16 16 16 15 16 17 17 17 18 18 19 20 19 18 19 19 19 20 20 20 20 19 19 19 19 18 19 18
15 15 15 15 16 16 17 17 17 17 17 17 17 16 16 16 16 16 15 15 16 16 17 17 17 17 17 17 17 17 18 19 19 18 18 18 18 18 18 18 18 18 17
14 14 14 15 15 15 16 16 18 17 18 18 18 18 17 17 17 16 15 15 15 16 16 16 16 16 16 16 16 17 17 17 17 18 18 18 17 17 17 17 17 17 17
14 14 14 15 15 15 15 16 16 18 18 17 18 18 18 17 17 16 16 16 16 17 16 16 16 16 16 16 16 16 16 16 17 17 17 17 17 17 17 16 16 17 17
15 15 15 15 15 14 16 16 17 17 17 18 18 18 18 17 17 17 17 17 17 17 17 17 16 16 16 16 16 16 16 16 17 17 17 17 17 17 16 16 16 16 16
16 16 15 15 14 16 16 17 19 19 17 17 18 18 19 18 18 18 18 18 18 17 17 17 16 16 17 17 16 17 17 17 17 17 17 17 17 17 17 16 16 16 16
16 17 16 16 17 18 18 19 19 19 19 17 18 19 18 18 19 18 18 18 18 18 17 17 16 16 16 16 16 16 16 17 17 18 18 18 17 17 17 16 16 16 16
16 16 17 16 17 18 20 19 19 19 19 18 19 20 19 19 19 18 19 19 19 19 18 18 17 17 17 16 16 16 16 17 17 17 17 17 17 17 17 17 17 16 16
15 15 17 16 18 19 21 19 20 20 19 19 20 20 19 19 19 19 19 20 20 19 19 20 19 18 18 17 18 17 17 17 17 17 17 17 17 17 17 17 16 16 16
15 15 15 16 18 18 18 20 20 19 21 21 21 20 20 20 20 20 20 20 20 20 19 19 19 19 19 18 18 18 19 19 19 19 19 18 18 17 17 17 17 16 15
14 14 13 14 14 15 16 16 17 17 19 20 20 21 20 20 20 20 20 21 20 20 19 20 20 20 19 19 19 19 19 18 19 19 19 18 18 18 17 17 17 16 16
13 13 13 12 12 12 13 13 13 13 13 14 16 17 19 19 18 20 19 20 20 20 20 20 20 21 20 20 20 20 20 20 19 19 19 19 19 18 17 17 17 16 16
11 12 11 12 10 10 11 11 11 11 11 10 10 10 11 12 12 15 18 17 17 18 18 18 19 19 19 20 20 20 19 19 19 19 19 18 18 18 17 17 17 17 16
Height
788 787 787 787 786 786 784 782 781 780 779 779 777 776 776 777 777 776 779 780 782 784 787 788 787 788 790 792 793 795 798 800 799 792 792 791 790 789 789 789 790 790 791
785 783 783 783 782 780 779 777 776 774 773 772 771 770 770 771 769 769 769 770 772 774 776 778 779 781 783 785 788 787 790 792 794 790 788 786 785 784 784 784 785 786 787
782 781 779 777 776 774 772 769 768 767 766 764 764 763 763 763 764 762 762 761 763 764 766 768 771 775 776 779 783 783 783 783 784 787 785 784 782 781 780 781 781 782 784
778 776 774 772 770 767 765 763 761 759 757 756 755 755 753 753 752 752 752 753 753 753 754 757 761 765 765 772 778 780 777 775 776 780 782 782 780 778 777 778 778 778 779
773 770 768 767 764 762 759 755 753 750 748 747 746 745 744 743 741 741 740 741 741 742 743 744 743 745 751 758 766 773 775 769 771 772 774 775 774 773 771 772 773 773 775
767 765 763 760 758 756 753 749 746 744 741 739 738 736 735 732 730 730 731 730 729 729 730 731 732 735 741 746 754 759 768 769 762 764 764 765 765 766 766 767 768 769 772
761 758 756 754 751 749 747 744 741 738 735 733 730 729 726 723 721 720 720 719 717 717 718 721 722 726 731 736 740 743 752 755 753 753 754 755 758 759 762 761 762 763 765
755 752 750 748 746 744 742 738 735 733 729 726 723 720 718 714 712 712 711 708 707 705 706 709 712 714 716 722 724 733 737 741 741 743 745 746 746 752 755 754 756 758 760
746 745 744 743 741 738 736 733 730 727 722 718 715 712 709 706 704 704 702 700 699 696 696 698 699 701 696 701 717 717 727 729 728 732 736 738 742 745 748 750 752 754 755
740 740 740 739 737 735 732 728 725 721 716 712 707 705 702 699 697 696 695 695 693 693 691 693 696 694 695 693 702 710 715 708 714 721 726 731 734 737 741 744 748 749 748
738 738 736 736 735 732 728 724 720 716 711 706 703 701 698 695 692 690 690 689 690 690 688 690 684 690 689 690 690 704 703 684 703 709 717 722 726 729 734 738 741 744 744
736 735 733 733 731 727 724 720 716 713 709 704 701 699 696 694 691 690 688 685 685 685 685 681 681 683 675 677 679 677 692 693 694 703 709 714 718 722 727 732 736 739 740
734 731 729 728 726 724 721 716 712 710 707 704 702 699 697 693 690 689 686 684 683 681 680 678 677 679 677 678 650 676 678 686 691 700 703 707 711 716 722 727 732 734 736
732 730 728 725 722 720 717 714 711 709 706 704 701 698 695 692 689 687 685 683 680 679 679 679 678 677 677 674 675 679 683 687 690 695 699 703 708 713 717 722 727 730 732
730 728 726 723 721 717 714 711 708 708 706 703 701 698 696 693 691 687 684 681 679 678 678 677 675 676 679 681 685 685 685 687 690 693 696 701 705 709 715 719 723 726 728
727 726 723 720 718 716 713 709 706 704 703 701 700 697 694 692 690 688 684 681 680 677 677 677 678 678 679 682 684 686 687 689 692 694 697 701 704 709 712 716 719 721 724
725 723 720 716 714 712 711 709 702 698 699 699 698 697 695 692 690 689 689 686 685 681 679 680 682 683 684 686 686 687 690 692 693 695 696 700 703 707 712 715 719 721 722
721 720 716 712 710 708 705 702 699 697 695 696 696 695 695 694 692 690 691 691 689 686 685 685 684 687 688 690 689 690 691 693 694 696 698 700 703 707 711 713 716 718 721
718 715 714 710 707 703 701 698 694 692 690 691 692 693 693 693 693 692 692 690 688 686 686 688 689 689 688 693 694 691 691 694 697 699 701 703 705 708 711 713 716 719 720
713 711 709 707 702 698 698 696 692 687 687 687 687 689 691 692 691 692 691 689 689 691 693 692 692 692 693 694 693 694 695 697 700 702 704 707 708 710 712 715 717 719 720
711 706 703 700 698 694 692 693 691 686 684 686 684 686 688 689 691 692 692 691 691 691 691 691 693 694 695 696 696 697 698 700 702 706 707 709 711 712 713 715 717 719 720
709 704 700 695 692 689 689 692 687 684 684 685 685 685 686 688 689 690 691 690 691 693 692 693 694 696 697 699 700 701 702 704 707 708 709 712 713 714 715 716 718 720 721
712 709 705 697 691 690 690 687 686 683 683 683 683 684 685 686 687 688 688 689 691 692 693 695 696 697 699 701 703 703 703 704 706 708 709 711 713 713 714 715 716 718 720
715 712 707 697 694 694 692 688 688 688 687 684 684 684 684 685 685 685 685 687 689 691 693 695 696 696 697 699 701 702 703 706 706 708 708 709 711 713 714 715 716 717 718
716 714 710 705 702 700 695 692 694 693 688 687 687 688 687 687 687 684 684 685 688 690 692 693 694 695 696 697 699 701 703 704 706 707 707 709 709 711 712 714 714 715 715
719 715 716 709 712 709 705 706 704 701 702 697 695 692 688 693 690 686 686 690 691 691 693 695 696 697 697 698 698 701 702 703 704 705 706 707 708 709 710 711 711 710 711
Wind_Speed
5 9 18 22 22 25 25 27 28 29 30 28 28 34 35 36 34 37 40 39 36 37 35 33 37 36 34 30 33 35 33 30 17 21 22 24 26 23 18 13 14 20 19
10 11 13 14 17 19 22 28 30 29 29 24 26 27 28 30 32 34 39 39 39 37 37 33 33 33 34 32 28 30 34 33 27 23 22 25 23 17 16 15 16 16 13
13 12 17 22 26 29 27 26 26 28 31 33 29 30 31 29 28 31 38 40 40 38 34 31 29 27 27 28 29 30 32 34 33 25 22 22 20 14 14 15 19 17 19
17 18 21 23 27 27 25 24 25 28 32 32 32 31 30 29 33 33 34 38 37 41 39 34 30 32 27 27 31 34 33 30 28 25 24 24 25 18 16 16 17 18 20
22 23 22 23 23 24 24 26 26 27 31 30 30 31 29 28 31 31 32 35 35 43 46 47 46 44 38 35 31 28 36 30 24 23 22 19 23 20 15 15 17 18 19
22 21 23 23 21 23 22 22 23 26 28 28 29 30 26 29 31 31 32 33 35 40 45 48 42 36 39 43 50 44 47 38 29 26 25 19 24 28 22 18 17 11 4
21 22 22 20 17 17 20 22 23 25 25 25 28 26 29 30 30 28 28 34 35 39 40 37 34 35 33 38 39 36 40 51 48 36 30 29 24 31 25 17 17 14 13
24 22 18 11 13 15 18 20 21 22 24 25 25 27 27 30 29 26 26 28 35 40 42 40 37 35 36 38 27 31 32 47 54 47 37 38 35 30 25 20 18 17 13
27 22 16 13 14 14 16 18 20 22 25 25 25 27 27 29 28 26 22 23 28 37 36 38 37 39 40 39 30 37 45 49 50 50 43 39 28 23 23 18 17 15 7
23 19 14 14 14 14 14 17 20 23 29 26 19 21 23 26 27 23 20 21 19 24 30 33 41 40 43 42 49 37 48 45 38 36 37 37 29 28 26 22 21 19 8
15 12 12 14 14 13 14 19 21 24 22 13 10 10 10 10 13 20 18 19 18 15 16 16 26 40 45 42 51 37 39 37 35 33 31 34 33 28 26 23 21 22 15
8 11 13 15 15 14 14 19 23 20 17 10 9 7 8 8 7 7 8 15 20 14 14 15 18 14 14 47 44 50 42 32 23 26 24 24 27 27 25 23 20 18 14
9 11 13 15 14 13 17 23 22 17 15 8 7 6 5 6 4 7 7 7 12 15 13 13 8 11 12 19 20 11 15 17 19 17 21 22 27 29 25 19 18 15 12
11 13 14 14 17 15 17 21 15 13 11 9 10 8 8 7 9 8 8 7 6 11 10 9 8 6 5 2 2 5 11 19 22 22 22 22 18 19 22 19 15 12 9
14 15 16 15 17 18 19 23 21 16 10 9 6 7 9 8 6 9 11 6 3 8 9 8 8 10 11 10 8 7 9 11 14 16 18 21 21 19 18 17 14 14 10
16 18 18 18 16 12 19 26 25 16 11 7 4 7 7 6 6 6 10 8 1 3 6 8 9 8 9 8 9 8 9 9 10 12 15 17 17 16 15 15 14 13 13
15 17 15 15 16 18 19 21 19 18 15 11 6 4 6 6 4 4 4 6 5 9 13 9 7 5 4 5 7 7 8 9 11 12 12 12 13 13 14 14 12 10 8
13 13 19 22 25 24 22 22 18 15 14 15 11 7 4 3 2 3 3 5 3 4 8 9 6 6 9 10 9 11 11 11 11 11 11 12 12 12 12 11 12 9 8
15 16 18 26 24 26 22 22 19 15 14 17 10 10 7 5 4 3 2 4 5 9 8 7 8 11 11 9 10 13 13 13 13 13 14 14 14 13 15 15 15 12 12
21 18 20 17 20 19 15 13 17 17 9 11 15 14 9 7 6 4 5 2 9 8 9 9 6 6 6 6 8 8 9 11 11 10 10 10 10 11 14 15 16 14 11
21 22 26 23 14 17 15 14 16 22 20 12 15 10 10 9 8 4 3 5 10 8 8 8 8 10 10 9 10 10 11 10 10 10 10 10 11 12 12 13 13 14 14
23 22 24 24 17 9 10 4 15 7 8 10 10 9 10 9 8 7 5 3 11 10 9 10 11 8 8 10 11 11 10 10 10 9 9 9 10 12 12 12 10 13 14
20 19 20 14 15 10 13 16 17 17 14 13 9 9 11 11 10 11 9 7 7 10 9 8 9 10 12 10 10 10 10 11 11 13 12 13 10 7 10 10 13 15 15
18 18 17 22 25 19 18 21 17 14 11 13 13 14 14 12 11 14 16 12 8 5 8 8 5 8 13 12 7 6 8 14 15 14 12 14 12 7 6 9 10 13 15
17 18 23 24 25 22 22 28 23 23 24 19 20 9 7 9 7 4 5 7 7 8 10 7 8 7 10 14 11 11 11 9 11 11 6 6 6 6 6 6 9 11 12
14 17 17 26 24 24 25 22 20 25 20 23 26 26 22 17 17 16 7 1 2 1 5 6 7 8 12 12 13 10 10 11 13 9 6 5 6 5 5 6 3 6 13
Wind_Direction
289 279 275 272 272 278 275 276 278 283 277 277 282 279 270 263 249 235 242 239 233 235 235 232 238 241 240 241 247 248 247 240 243 268 270 273 272 278 255 259 255 259 259
306 304 295 287 296 298 288 281 283 282 281 281 285 285 281 272 264 244 234 236 233 228 230 228 235 239 241 241 239 240 243 244 239 256 266 270 274 265 253 258 255 256 251
303 293 294 299 303 302 299 292 282 273 274 281 284 285 285 283 272 261 242 237 235 233 227 223 231 237 245 245 242 241 239 246 243 248 263 268 270 262 254 260 257 253 249
284 282 285 292 298 295 295 295 291 282 281 278 280 281 283 287 280 273 256 247 234 234 229 218 234 242 245 259 257 247 238 233 233 238 255 260 261 261 260 253 252 240 246
281 275 283 298 296 296 298 303 301 294 286 283 278 277 281 284 280 268 259 256 244 234 232 233 243 236 246 251 250 266 257 230 227 231 237 241 251 249 233 239 242 249 243
271 278 293 294 292 294 300 307 309 303 295 288 276 276 282 283 280 274 262 254 249 240 235 238 238 243 246 242 247 254 264 252 228 227 230 227 234 238 236 236 229 216 237
271 281 286 290 289 297 303 305 308 311 308 297 289 286 283 283 279 279 269 260 251 242 236 230 229 236 239 245 254 257 266 252 245 229 224 226 233 240 231 223 224 220 224
282 279 276 268 288 304 309 310 310 312 312 304 293 284 280 279 278 276 276 270 253 246 242 236 228 230 237 245 251 250 268 248 243 238 230 238 242 246 239 233 221 217 237
285 274 258 276 286 294 307 313 315 315 317 310 292 284 276 277 279 269 271 269 251 244 242 242 236 235 256 263 255 262 265 246 240 237 235 243 240 228 217 203 193 190 198
290 262 265 282 288 291 306 319 314 314 311 306 288 283 281 278 276 265 255 254 244 244 233 229 233 238 242 242 237 232 246 229 218 225 225 233 237 222 217 215 215 203 174
284 256 271 278 285 296 311 324 322 318 309 304 306 314 313 306 290 262 246 245 246 251 263 263 237 233 242 235 226 236 254 226 223 218 220 220 222 214 205 209 217 214 187
268 273 276 282 286 290 315 325 327 320 318 343 340 336 338 314 324 309 275 258 243 232 242 257 241 231 221 247 230 247 224 234 228 219 205 207 210 208 205 203 203 208 207
280 276 279 282 287 301 327 329 322 321 319 306 327 341 343 9 341 323 312 292 248 237 255 272 253 206 193 216 217 217 233 221 209 187 191 197 206 208 201 191 196 209 240
280 284 288 291 290 309 329 336 323 308 314 310 304 302 319 336 345 318 310 310 260 222 237 230 207 162 158 175 105 143 184 192 194 201 198 204 195 178 179 191 194 201 211
282 284 284 286 296 305 323 321 312 293 291 306 290 316 295 311 315 344 321 307 257 212 210 180 146 130 128 128 134 135 146 166 180 189 188 178 180 185 188 195 194 192 195
285 291 294 293 299 300 309 311 308 282 268 277 308 314 332 331 330 336 339 338 334 219 154 138 120 123 130 142 143 135 133 143 149 158 168 176 180 187 188 190 193 190 200
286 302 309 309 316 312 293 285 292 303 253 254 262 292 325 346 20 35 20 16 4 44 65 67 77 90 105 130 129 132 134 150 147 148 154 171 173 168 171 175 188 188 199
285 299 317 320 314 300 292 292 291 283 250 246 239 245 276 300 352 62 14 332 347 140 131 122 103 126 115 123 124 131 132 146 138 138 146 155 157 163 175 183 185 187 176
281 287 294 296 284 281 289 304 304 299 277 248 235 240 246 269 284 281 342 9 120 126 133 142 144 141 129 135 130 122 118 118 128 119 127 136 141 145 131 123 129 136 139
317 297 293 277 292 286 287 307 304 304 299 257 227 236 232 239 265 304 335 333 167 162 151 135 143 153 162 166 154 141 140 140 144 144 161 152 150 154 148 147 145 139 135
358 341 336 323 306 296 288 258 264 267 269 242 234 236 248 243 263 297 1 111 172 166 144 125 128 129 125 120 127 134 139 146 150 153 158 156 153 151 151 153 156 156 155
4 350 335 315 315 279 277 287 299 282 250 235 244 240 236 241 253 271 277 249 208 193 164 145 149 157 168 163 153 149 152 156 157 160 164 166 158 160 159 164 174 172 167
17 352 331 9 35 48 52 28 7 308 233 239 238 245 233 238 246 261 277 269 207 229 217 189 178 176 176 192 201 199 187 165 157 149 156 178 169 164 196 193 192 193 192
23 8 12 27 28 38 31 41 41 24 5 333 267 245 248 255 267 273 265 252 221 222 225 195 203 234 221 201 207 228 208 213 181 170 150 149 165 177 182 194 196 197 203
32 26 32 33 34 24 35 31 27 31 38 43 45 38 36 6 339 310 323 169 186 186 224 217 183 163 173 192 204 189 180 169 194 174 174 164 177 187 195 204 226 221 205
45 48 33 47 39 34 37 39 35 36 31 48 45 41 57 49 47 58 85 69 144 352 301 285 216 202 201 203 202 211 213 203 204 223 243 254 224 230 228 219 228 245 231